EW7736 Weather Reports


Display with metric or nautical units.
time (UTC)temp
F
wind
direction
speed
MPH
gust
MPH
rain 1hr
in
rain 24hr
in
rain mn
in
humidity
%
barometer
mb
20260509195817 63 94 2.0 10.0 0.00 0.12 0.12 58 1008.1
20260509193714 63 108 2.0 11.0 0.00 0.12 0.12 55 1008.4
20260509191548 61 56 2.0 9.0 0.00 0.12 0.12 51 1008.9
20260509190555 61 85 2.0 9.0 0.00 0.12 0.12 49 1009.1
20260509185523 61 15 2.0 9.0 0.00 0.12 0.12 35 1009.2
20260509184523 60 92 3.0 9.0 0.00 0.12 0.12 37 1009.2
20260509182340 59 91 1.0 5.0 0.00 0.12 0.12 17 1009.3
20260509181354 58 104 2.0 5.0 0.00 0.12 0.12 20 1009.4
20260509175217 57 51 2.0 6.0 0.00 0.12 0.12 14 1009.3
20260509174232 57 108 1.0 6.0 0.00 0.12 0.12 6 1009.3
20260509173215 57 22 1.0 7.0 0.00 0.12 0.12 1 1009.4
20260509172218 56 44 2.0 8.0 0.00 0.12 0.12 1 1009.2
20260509171149 56 52 2.0 8.0 0.00 0.12 0.12 1 1009.2
20260509170140 56 50 1.0 5.0 0.00 0.12 0.12 1 1009.1
20260509163930 55 52 0.0 3.0 0.00 0.12 0.12 1 1009.0
20260509161843 54 44 0.0 3.0 0.00 0.12 0.12 1 1008.6
20260509160845 54 52 0.0 4.0 0.00 0.12 0.12 1 1008.8
20260509155822 54 41 1.0 9.0 0.00 0.12 0.12 1 1008.8
20260509154754 53 48 1.0 9.0 0.00 0.12 0.12 1 1008.6
20260509153756 53 48 1.0 6.0 0.00 0.12 0.12 1 1008.5
20260509152727 53 62 1.0 6.0 0.00 0.12 0.12 1 1008.5
20260509151714 53 51 1.0 4.0 0.00 0.12 0.12 1 1008.3
20260509150643 52 51 2.0 7.0 0.00 0.12 0.12 1 1008.8
20260509145632 52 31 2.0 7.0 0.00 0.12 0.12 1 1009.0
20260509144635 52 67 3.0 9.0 0.04 0.10 0.10 1 1009.1
20260509143644 52 43 2.0 9.0 0.04 0.10 0.10 1 1009.1
20260509141448 52 63 2.0 7.0 0.00 0.09 0.09 1 1009.0
20260509134153 51 40 3.0 10.0 0.04 0.06 0.06 1 1009.1
20260509132011 51 44 3.0 10.0 0.04 0.06 0.06 1 1009.3
20260509125847 51 30 2.0 6.0 0.04 0.04 0.04 1 1009.3
20260509124837 51 50 1.0 6.0 0.00 0.03 0.03 1 1009.4
20260509123844 51 51 1.0 5.0 0.00 0.03 0.03 1 1009.5
20260509122813 51 51 1.0 5.0 0.00 0.02 0.02 1 1009.5
20260509120706 51 49 0.0 5.0 0.00 0.01 0.01 1 1009.6
20260509115725 51 38 0.0 5.0 0.00 0.01 0.01 1 1009.5
20260509114706 51 49 1.0 5.0 0.00 0.01 0.01 1 1009.5
20260509113639 51 51 1.0 7.0 0.00 0.01 0.01 1 1009.4
20260509111545 51 53 0.0 4.0 0.00 0.01 0.01 1 1009.4
20260509110513 51 53 1.0 5.0 0.00 0.01 0.01 1 1009.3
20260509105502 51 53 1.0 6.0 0.00 0.01 0.01 1 1009.2
20260509104429 51 52 1.0 6.0 0.00 0.01 0.01 1 1009.2
20260509103358 51 46 1.0 7.0 0.00 0.01 0.01 1 1009.2
20260509102326 51 46 2.0 11.0 0.00 0.00 0.01 1 1009.1
20260509101313 51 44 3.0 11.0 0.00 0.00 0.00 1 1009.3
20260509095116 52 47 2.0 9.0 0.00 0.00 0.00 4 1009.3
20260509094136 52 38 3.0 9.0 0.00 0.00 0.00 13 1009.4
20260509093148 52 35 2.0 8.0 0.00 0.00 0.00 18 1009.4
20260509092131 52 45 3.0 8.0 0.00 0.00 0.00 23 1009.6
20260509091154 53 39 3.0 9.0 0.00 0.00 0.00 26 1009.7
20260509090215 53 49 4.0 9.0 0.00 0.00 0.00 35 1009.8
20260509085227 53 27 3.0 9.0 0.00 0.00 0.00 37 1009.8
20260509084155 53 67 3.0 11.0 0.00 0.00 0.00 41 1009.8
20260509083120 53 65 2.0 8.0 0.00 0.00 0.00 41 1009.8
20260509082051 52 55 1.0 5.0 0.00 0.00 0.00 33 1009.8
20260509075958 51 106 0.0 0.0 0.00 0.00 0.00 1 1009.3
20260509075007 50 109 0.0 0.0 0.00 0.00 0.00 1 1009.1
20260509074026 50 104 0.0 2.0 0.00 0.00 0.00 1 1009.1
20260509073034 50 113 0.0 0.0 0.00 0.00 0.00 1 1008.8
20260509072045 50 114 0.0 0.0 0.00 0.00 0.00 1 1008.5
20260509071045 50 114 0.0 0.0 0.00 0.00 0.00 1 1008.6
20260509070030 50 113 0.0 0.0 0.00 0.00 0.00 1 1008.5
20260509065032 50 244 0.0 0.0 0.00 0.00 0.00 1 1008.7
20260509064013 51 245 0.0 0.0 0.00 0.00 0.00 1 1008.8
20260509063030 51 245 0.0 0.0 0.00 0.00 0.00 3 1009.0
20260509062043 51 245 0.0 0.0 0.00 0.00 0.00 4 1009.1
20260509061024 51 245 0.0 0.0 0.00 0.00 0.00 1 1009.4
20260509060004 50 305 0.0 0.0 0.00 0.00 0.00 1 1009.5
20260509054951 50 122 0.0 0.0 0.00 0.00 0.00 1 1009.8
20260509054004 50 123 0.0 0.0 0.00 0.00 0.00 1 1009.9
20260509052930 50 168 0.0 0.0 0.00 0.00 0.00 1 1009.8
20260509051949 50 168 0.0 0.0 0.00 0.00 0.00 1 1010.0
20260509050923 50 168 0.0 0.0 0.00 0.00 0.00 1 1010.1
20260509045912 50 175 0.0 0.0 0.00 0.00 0.00 1 1010.0
20260509044843 50 175 0.0 0.0 0.00 0.00 0.00 1 1009.9
20260509043809 50 175 0.0 0.0 0.00 0.00 0.00 1 1009.9
20260509041649 50 175 0.0 0.0 0.00 0.00 0.00 1 1010.2
20260509040633 51 175 0.0 0.0 0.00 0.00 0.00 1 1010.3
20260509035603 51 175 0.0 0.0 0.00 0.00 0.00 1 1010.4
20260509034600 51 175 0.0 0.0 0.00 0.00 0.00 1 1010.6
20260509032427 51 175 0.0 0.0 0.00 0.00 0.00 4 1011.1
20260509031427 52 175 0.0 0.0 0.00 0.00 0.00 16 1011.1
20260509030407 52 156 0.0 0.0 0.00 0.00 0.00 22 1011.2
20260509025338 52 156 0.0 0.0 0.00 0.00 0.00 29 1011.3
20260509024310 52 115 0.0 0.0 0.00 0.00 0.00 31 1011.3
20260509023328 52 115 0.0 0.0 0.00 0.00 0.00 26 1011.4
20260509020106 53 269 0.0 0.0 0.00 0.00 0.00 42 1011.2
20260509015104 53 269 0.0 0.0 0.00 0.00 0.00 46 1011.1
20260509014056 53 269 0.0 0.0 0.00 0.00 0.00 49 1010.9
20260509011932 54 269 0.0 0.0 0.00 0.00 0.00 54 1010.6
20260509010933 54 269 0.0 0.0 0.00 0.00 0.00 56 1010.2
20260509005912 54 269 0.0 0.0 0.00 0.00 0.00 59 1010.2
20260509004902 54 269 0.0 0.0 0.00 0.00 0.00 59 1010.0
20260509002706 55 269 0.0 0.0 0.00 0.00 0.00 61 1010.0
20260509001654 55 269 0.0 0.0 0.00 0.00 0.00 61 1010.1
20260509000647 55 178 0.0 0.0 0.00 0.00 0.00 61 1010.0
20260508234526 56 178 0.0 0.0 0.00 0.00 0.00 60 1010.2
20260508233517 56 178 0.0 0.0 0.00 0.00 0.00 61 1010.2
20260508232510 57 178 0.0 0.0 0.00 0.00 0.00 62 1010.2
20260508231436 57 178 0.0 0.0 0.00 0.00 0.00 61 1010.1
20260508230426 58 178 0.0 0.0 0.00 0.00 0.00 60 1010.2
20260508225443 58 178 0.0 0.0 0.00 0.00 0.00 59 1010.2
20260508224436 59 178 0.0 0.0 0.00 0.00 0.00 58 1010.3
20260508222313 59 178 0.0 1.0 0.00 0.00 0.00 57 1010.1
20260508221336 60 236 0.0 0.0 0.00 0.00 0.00 56 1010.0
20260508220336 60 346 0.0 1.0 0.00 0.00 0.00 55 1010.1
20260508215322 60 102 0.0 0.0 0.00 0.00 0.00 54 1010.1
20260508214253 60 102 0.0 0.0 0.00 0.00 0.00 54 1010.3
20260508213224 60 102 0.0 0.0 0.00 0.00 0.00 54 1010.3
20260508212249 60 102 0.0 0.0 0.00 0.00 0.00 53 1010.4
20260508211224 59 102 0.0 0.0 0.00 0.00 0.00 56 1010.6
20260508205122 59 102 0.0 0.0 0.00 0.00 0.00 58 1010.9
20260508204112 58 102 0.0 0.0 0.00 0.00 0.00 58 1011.1
20260508203047 57 102 0.0 0.0 0.00 0.00 0.00 59 1011.2
20260508202055 57 102 0.0 0.0 0.00 0.00 0.00 58 1011.4